Weather History for Bemidji, MN

Change the Weather History Date:

Friday, January 4, 2013

  Actual Average Record
Temperature  
Mean Temperature 15 °F -  
Max Temperature 27 °F 10 °F 44 °F (2007)
Min Temperature 3 °F -9 °F -38 °F (1968)
Degree Days  
Heating Degree Days 50    
Moisture  
Dew Point 12 °F    
Average Humidity 81    
Maximum Humidity 94    
Minimum Humidity 67    
Precipitation  
Precipitation 0.00 in - - ()
Sea Level Pressure  
Sea Level Pressure 29.98 in    
Wind  
Wind Speed 8 mph (West)    
Max Wind Speed 15 mph    
Max Gust Speed -    
Visibility 10 miles    
Events      
Averages and records for this station are not official NWS values.
T = Trace of Precipitation, MM = Missing Value Source: NWS Daily Summary

Daily Weather History Graph

Daily Weather History Graph

Search for Another Location

Airport:

Trip Planner

Search our weather history database for the weather conditions in past years. The results will help you decide how hot, cold, wet, or windy it might be!

Date:

Astronomy

Jan. 04, 2013 Rise Set
Actual Time 8:07 AM CST 4:42 PM CST
Civil Twilight 7:31 AM CST 5:18 PM CST
Nautical Twilight 6:52 AM CST 5:57 PM CST
Astronomical Twilight 6:15 AM CST 6:34 PM CST
Moon No Moon Rise 11:17 AM CST (1/4)
Length of Visible Light 9h 46m
Length of Day
8h 35m
Waning Gibbous, 55% of the Moon is Illuminated
Jan 4
Waning Gibbous
Jan 4
Last Quarter
Jan 11
New
Jan 18
First Quarter
Jan 26
Full

Hourly Weather History & Observations

Time (CST) Temp. Windchill Dew Point Humidity Pressure Visibility Wind Dir Wind Speed Gust Speed Precip Events Conditions
12:15 AM 20.5 °F 8.0 °F 13.1 °F 73% 29.86 in 10.0 mi West 12.7 mph - N/A   Clear
12:35 AM 19.8 °F 7.1 °F 12.7 °F 74% 29.87 in 10.0 mi West 12.7 mph - N/A   Clear
12:55 AM 19.4 °F 6.0 °F 12.6 °F 75% 29.86 in 10.0 mi West 13.8 mph - N/A   Clear
1:15 AM 19.2 °F 5.3 °F 12.6 °F 75% 29.86 in 10.0 mi West 15.0 mph - N/A   Clear
1:35 AM 18.7 °F 7.0 °F 12.2 °F 76% 29.87 in 10.0 mi West 10.4 mph - N/A   Clear
1:55 AM 18.1 °F 4.4 °F 12.0 °F 77% 29.87 in 10.0 mi West 13.8 mph - N/A   Clear
2:15 AM 17.8 °F 5.2 °F 11.8 °F 78% 29.87 in 10.0 mi West 11.5 mph - N/A   Clear
2:35 AM 17.4 °F 4.7 °F 11.7 °F 78% 29.88 in 10.0 mi West 11.5 mph - N/A   Clear
2:55 AM 17.1 °F 5.8 °F 11.3 °F 78% 29.88 in 10.0 mi WSW 9.2 mph - N/A   Clear
5:35 AM 15.4 °F 5.6 °F 10.8 °F 82% 29.90 in 10.0 mi West 6.9 mph - N/A   Clear
5:55 AM 14.4 °F 4.3 °F 10.0 °F 83% 29.91 in 10.0 mi West 6.9 mph - N/A   Clear
6:15 AM 13.1 °F 2.8 °F 9.1 °F 84% 29.91 in 10.0 mi West 6.9 mph - N/A   Clear
6:35 AM 13.1 °F 0.9 °F 9.5 °F 86% 29.91 in 10.0 mi West 9.2 mph - N/A   Clear
6:55 AM 13.3 °F 1.1 °F 9.5 °F 85% 29.92 in 10.0 mi West 9.2 mph - N/A   Clear
7:35 AM 13.3 °F 2.0 °F 9.7 °F 86% 29.93 in 10.0 mi West 8.1 mph - N/A   Clear
7:55 AM 12.7 °F 1.4 °F 9.1 °F 86% 29.93 in 10.0 mi West 8.1 mph - N/A   Clear
8:15 AM 12.0 °F 1.5 °F 8.6 °F 86% 29.94 in 10.0 mi West 6.9 mph - N/A   Clear
8:35 AM 11.5 °F 0.9 °F 8.2 °F 87% 29.95 in 10.0 mi West 6.9 mph - N/A   Clear
8:55 AM 12.4 °F 0.9 °F 9.0 °F 86% 29.96 in 10.0 mi West 8.1 mph - N/A   Clear
9:15 AM 13.5 °F 2.2 °F 9.9 °F 86% 29.96 in 10.0 mi West 8.1 mph - N/A   Clear
9:35 AM 14.5 °F 2.7 °F 10.4 °F 84% 29.97 in 10.0 mi WSW 9.2 mph - N/A   Clear
9:55 AM 16.7 °F 6.2 °F 11.7 °F 81% 29.98 in 10.0 mi West 8.1 mph - N/A   Clear
10:15 AM 18.0 °F 6.1 °F 12.4 °F 79% 30.00 in 10.0 mi WNW 10.4 mph - N/A   Clear
10:35 AM 19.6 °F 9.7 °F 13.1 °F 76% 30.00 in 10.0 mi WNW 8.1 mph - N/A   Clear
10:55 AM 20.5 °F 10.0 °F 13.8 °F 75% 30.01 in 10.0 mi WNW 9.2 mph - N/A   Clear
11:15 AM 21.7 °F 10.8 °F 14.5 °F 74% 30.01 in 10.0 mi West 10.4 mph - N/A   Clear
11:35 AM 22.8 °F 12.9 °F 15.1 °F 72% 30.01 in 10.0 mi West 9.2 mph - N/A   Clear
11:55 AM 23.2 °F 15.0 °F 15.6 °F 73% 30.00 in 10.0 mi West 6.9 mph - N/A   Clear
12:15 PM 24.3 °F 16.3 °F 16.0 °F 71% 30.00 in 10.0 mi West 6.9 mph - N/A   Clear
12:35 PM 25.2 °F 15.7 °F 16.7 °F 70% 30.00 in 10.0 mi West 9.2 mph - N/A   Clear
12:55 PM 26.2 °F 17.8 °F 17.2 °F 69% 30.01 in 10.0 mi West 8.1 mph - N/A   Clear
1:15 PM 27.0 °F 18.7 °F 17.6 °F 68% 30.00 in 10.0 mi WNW 8.1 mph - N/A   Clear
1:35 PM 27.1 °F 19.7 °F 17.8 °F 68% 30.01 in 7.0 mi West 6.9 mph - N/A   Clear
1:55 PM 27.5 °F 19.3 °F 18.0 °F 67% 30.00 in 10.0 mi West 8.1 mph - N/A   Clear
2:15 PM 27.1 °F 19.7 °F 18.1 °F 69% 30.00 in 10.0 mi WNW 6.9 mph - N/A   Clear
2:35 PM 26.4 °F 19.8 °F 18.3 °F 71% 30.00 in 10.0 mi WNW 5.8 mph - N/A   Clear
2:55 PM 26.6 °F 19.1 °F 18.5 °F 71% 30.01 in 10.0 mi WNW 6.9 mph - N/A   Clear
3:15 PM 26.4 °F 18.0 °F 18.0 °F 70% 30.02 in 10.0 mi NW 8.1 mph - N/A   Clear
3:35 PM 25.9 °F 18.2 °F 17.2 °F 70% 30.02 in 10.0 mi NW 6.9 mph - N/A   Clear
3:55 PM 24.1 °F 16.0 °F 16.5 °F 73% 30.03 in 10.0 mi WNW 6.9 mph - N/A   Clear
4:15 PM 23.0 °F 15.8 °F 16.0 °F 74% 30.03 in 10.0 mi WNW 5.8 mph - N/A   Clear
4:35 PM 23.4 °F 16.2 °F 16.0 °F 73% 30.04 in 10.0 mi West 5.8 mph - N/A   Clear
4:55 PM 22.8 °F 18.2 °F 16.3 °F 76% 30.04 in 10.0 mi WSW 3.5 mph - N/A   Clear
5:15 PM 23.0 °F 18.4 °F 16.2 °F 75% 30.03 in 10.0 mi WSW 3.5 mph - N/A   Clear
5:35 PM 22.3 °F 14.9 °F 16.0 °F 77% 30.04 in 10.0 mi WSW 5.8 mph - N/A   Clear
5:55 PM 21.2 °F 14.9 °F 15.4 °F 78% 30.04 in 10.0 mi West 4.6 mph - N/A   Clear
6:15 PM 18.0 °F 12.7 °F 14.5 °F 86% 30.04 in 10.0 mi WNW 3.5 mph - N/A   Clear
6:35 PM 16.0 °F - 13.3 °F 89% 30.04 in 10.0 mi Calm Calm - N/A   Clear
6:55 PM 14.2 °F - 12.4 °F 93% 30.04 in 10.0 mi Calm Calm - N/A   Clear
7:15 PM 14.0 °F - 12.2 °F 93% 30.04 in 10.0 mi Calm Calm - N/A   Clear
7:35 PM 12.7 °F - 11.1 °F 93% 30.05 in 10.0 mi Calm Calm - N/A   Clear
7:55 PM 11.1 °F - 9.7 °F 94% 30.04 in 7.0 mi Calm Calm - N/A   Clear
8:15 PM 9.5 °F - 7.9 °F 93% 30.04 in 10.0 mi Calm Calm - N/A   Clear
8:35 PM 8.6 °F - 7.2 °F 94% 30.05 in 7.0 mi Calm Calm - N/A   Clear
8:55 PM 9.5 °F - 7.9 °F 93% 30.04 in 10.0 mi Calm Calm - N/A   Clear
9:15 PM 9.3 °F - 7.2 °F 91% 30.04 in 7.0 mi Calm Calm - N/A   Clear
9:35 PM 7.7 °F - 5.7 °F 92% 30.03 in 10.0 mi Calm Calm - N/A   Clear
9:55 PM 7.7 °F - 5.5 °F 91% 30.02 in 7.0 mi Calm Calm - N/A   Clear
10:15 PM 6.3 °F - 3.9 °F 90% 30.02 in 10.0 mi Calm Calm - N/A   Clear
10:35 PM 3.9 °F - 1.4 °F 89% 30.03 in 7.0 mi Calm Calm - N/A   Clear
10:55 PM 3.4 °F - 0.7 °F 89% 30.03 in 10.0 mi Calm Calm - N/A   Clear
11:15 PM 4.5 °F - 1.9 °F 89% 30.03 in 10.0 mi Calm Calm - N/A   Clear
11:35 PM 4.3 °F - 1.8 °F 89% 30.02 in 10.0 mi Calm Calm - N/A   Clear
11:55 PM 3.9 °F - 1.2 °F 89% 30.02 in 10.0 mi Calm Calm - N/A   Clear